Weather History for KCMY - August, 2012

Change the Weather History Date:

Saturday, August 11, 2012

  Actual Average (WUND) Record (WUND)
Temperature  
Mean Temperature 58 °F -  
Max Temperature 77 °F - - (-1)
Min Temperature 39 °F - - (-1)
Degree Days  
Heating Degree Days 7    
Growing Degree Days 8 (Base 50)    
Moisture  
Dew Point 46 °F    
Average Humidity 73    
Maximum Humidity 100    
Minimum Humidity 29    
Precipitation  
Precipitation 0.00 in - - ()
Sea Level Pressure  
Sea Level Pressure 30.06 in    
Wind  
Wind Speed 1 mph (North)    
Max Wind Speed 9 mph    
Max Gust Speed 16 mph    
Visibility 10 miles    
Events Fog    
Averages and records for this station are not official NWS values.
T = Trace of Precipitation, MM = Missing Value Source: NWS Daily Summary

Daily Weather History Graph

Daily Weather History Graph

Search for Another Location

Airport or City:

Trip Planner

Search our weather history database for the weather conditions in past years. The results will help you decide how hot, cold, wet, or windy it might be!

Date:

Astronomy

Aug. 11, 2012 Rise Set
Actual Time 6:02 AM CDT 8:12 PM CDT
Civil Twilight 5:31 AM CDT 8:43 PM CDT
Nautical Twilight 4:52 AM CDT 9:22 PM CDT
Astronomical Twilight 4:08 AM CDT 10:05 PM CDT
Moon 12:27 AM CDT (8/11) 3:51 PM CDT (8/11)
Length of Visible Light 15h 12m
Length of Day
14h 09m
Waning Crescent, 32% of the Moon is Illuminated
Aug 11
Waning Crescent
Aug 17
New
Aug 24
First Quarter
Aug 31
Full
Sep 8
Last Quarter

Hourly Weather History & Observations

Time (CDT) Temp. Dew Point Humidity Pressure Visibility Wind Dir Wind Speed Gust Speed Precip Events Conditions
12:15 AM 51.8 °F 48.2 °F 88% 30.07 in 10.0 mi Calm Calm - N/A   Clear
12:35 AM 48.2 °F 46.4 °F 93% 30.07 in 10.0 mi Calm Calm - N/A   Clear
12:55 AM 46.4 °F 44.6 °F 93% 30.07 in 10.0 mi Calm Calm - N/A   Clear
2:15 AM 46.4 °F 44.6 °F 93% 30.06 in 10.0 mi Calm Calm - N/A   Clear
2:35 AM 46.4 °F 44.6 °F 93% 30.07 in 10.0 mi Calm Calm - N/A   Clear
2:55 AM 44.6 °F 44.6 °F 100% 30.08 in 10.0 mi Calm Calm - N/A   Clear
3:35 AM 44.6 °F 42.8 °F 93% 30.08 in 10.0 mi Calm Calm - N/A   Clear
4:35 AM 42.8 °F 41.0 °F 93% 30.08 in 10.0 mi Calm Calm - N/A   Clear
4:55 AM 42.8 °F 41.0 °F 93% 30.09 in 10.0 mi Calm Calm - N/A   Clear
5:15 AM 41.0 °F 41.0 °F 100% 30.09 in 10.0 mi Calm Calm - N/A   Clear
5:35 AM 41.0 °F 41.0 °F 100% 30.09 in 10.0 mi Calm Calm - N/A   Scattered Clouds
6:15 AM 39.2 °F 39.2 °F 100% 30.10 in 0.2 mi Calm Calm - N/A Fog Fog
6:35 AM 39.2 °F 39.2 °F 100% 30.10 in 0.2 mi Calm Calm - N/A Fog Fog
7:15 AM 42.8 °F 42.8 °F 100% 30.10 in 10.0 mi Calm Calm - N/A   Mostly Cloudy
8:15 AM 51.8 °F 46.4 °F 82% 30.10 in 10.0 mi Calm Calm - N/A   Clear
8:35 AM 53.6 °F 48.2 °F 82% 30.10 in 10.0 mi Calm Calm - N/A   Clear
9:35 AM 59.0 °F 46.4 °F 63% 30.11 in 10.0 mi Calm Calm - N/A   Clear
10:15 AM 62.6 °F 48.2 °F 59% 30.10 in 10.0 mi NW 3.5 mph - N/A   Clear
10:35 AM 64.4 °F 48.2 °F 56% 30.10 in 10.0 mi Calm Calm - N/A   Clear
12:55 PM 71.6 °F 44.6 °F 38% 30.04 in 10.0 mi East 9.2 mph 16.1 mph N/A   Clear
1:15 PM 73.4 °F 44.6 °F 36% 30.05 in 10.0 mi NNE 3.5 mph - N/A   Clear
1:35 PM 73.4 °F 42.8 °F 33% 30.03 in 10.0 mi North 4.6 mph - N/A   Clear
1:55 PM 73.4 °F 42.8 °F 33% 30.04 in 10.0 mi North 8.1 mph - N/A   Clear
2:15 PM 73.4 °F 42.8 °F 33% 30.03 in 10.0 mi NNW 4.6 mph - N/A   Clear
2:35 PM 75.2 °F 42.8 °F 31% 30.03 in 10.0 mi NW 5.8 mph - N/A   Clear
2:55 PM 73.4 °F 41.0 °F 31% 30.03 in 10.0 mi Calm Calm - N/A   Clear
3:15 PM 75.2 °F 42.8 °F 31% 30.03 in 10.0 mi WNW 8.1 mph - N/A   Clear
3:35 PM 77.0 °F 42.8 °F 29% 30.02 in 10.0 mi NNE 5.8 mph - N/A   Clear
3:55 PM 75.2 °F 42.8 °F 31% 30.02 in 10.0 mi North 3.5 mph - N/A   Clear
8:15 PM 62.6 °F 53.6 °F 72% 30.01 in 10.0 mi Calm Calm - N/A   Clear
8:35 PM 60.8 °F 51.8 °F 72% 30.02 in 10.0 mi Calm Calm - N/A   Clear
8:55 PM 59.0 °F 53.6 °F 82% 30.02 in 10.0 mi Calm Calm - N/A   Clear
9:15 PM 59.0 °F 53.6 °F 82% 30.03 in 10.0 mi Calm Calm - N/A   Clear
9:55 PM 57.2 °F 51.8 °F 82% 30.03 in 10.0 mi East 3.5 mph - N/A   Clear
10:15 PM 55.4 °F 51.8 °F 88% 30.03 in 10.0 mi Calm Calm - N/A   Clear
10:35 PM 55.4 °F 51.8 °F 88% 30.04 in 10.0 mi Calm Calm - N/A   Clear
10:55 PM 51.8 °F 50.0 °F 94% 30.04 in 10.0 mi Calm Calm - N/A   Clear
11:15 PM 51.8 °F 50.0 °F 94% 30.04 in 10.0 mi Calm Calm - N/A   Clear
11:55 PM 51.8 °F 50.0 °F 94% 30.04 in 10.0 mi Calm Calm - N/A   Clear